W5MAI Weather Reports


Display with metric or nautical units.
time (UTC)temp
F
wind
direction
speed
MPH
gust
MPH
rain 1hr
in
rain 24hr
in
rain mn
in
humidity
%
barometer
mb
20260831072330 78 163 2.0 9.0 0.00 0.00 0.00 82 1017.7
20260831071340 79 178 4.0 7.0 0.00 0.00 0.00 81 1017.7
20260831070342 79 148 3.0 6.0 0.00 0.00 0.00 80 1017.8
20260831065328 79 115 3.0 8.0 0.00 0.00 0.00 79 1017.9
20260831064332 79 178 5.0 10.0 0.00 0.00 0.00 79 1018.1
20260831063344 80 175 3.0 7.0 0.00 0.00 0.00 78 1018.0
20260831062326 80 163 4.0 8.0 0.00 0.00 0.00 77 1018.0
20260831061325 80 151 4.0 10.0 0.00 0.00 0.00 76 1017.8
20260831060338 80 153 4.0 7.0 0.00 0.00 0.00 76 1017.7
20260831055323 81 140 4.0 9.0 0.00 0.00 0.00 74 1017.8
20260831054328 81 148 4.0 11.0 0.00 0.00 0.00 73 1017.5
20260831053342 81 132 5.0 10.0 0.00 0.00 0.00 72 1017.5
20260831052325 82 151 6.0 11.0 0.00 0.00 0.00 72 1017.5
20260831051330 82 136 5.0 10.0 0.00 0.00 0.00 70 1017.6
20260831050343 82 137 4.0 10.0 0.00 0.00 0.00 70 1017.5
20260831045339 82 165 4.0 8.0 0.00 0.00 0.00 69 1017.4
20260831044415 83 187 5.0 10.0 0.00 0.00 0.00 68 1017.4
20260831043343 83 160 4.0 10.0 0.00 0.00 0.00 67 1017.3
20260831042403 84 196 6.0 10.0 0.00 0.00 0.00 66 1017.2
20260831041334 84 172 6.0 11.0 0.00 0.00 0.00 65 1017.2
20260831040401 85 146 5.0 14.0 0.00 0.00 0.00 65 1017.2
20260831035329 85 184 6.0 12.0 0.00 0.00 0.00 64 1017.0
20260831034341 85 170 5.0 9.0 0.00 0.00 0.00 63 1017.0
20260831033415 86 163 5.0 13.0 0.00 0.00 0.00 63 1016.9
20260831031330 86 140 4.0 10.0 0.00 0.00 0.00 62 1016.8
20260831030352 86 190 6.0 13.0 0.00 0.00 0.00 61 1016.6
20260831025421 87 183 5.0 11.0 0.00 0.00 0.00 62 1016.5
20260831024452 87 171 3.0 9.0 0.00 0.00 0.00 62 1016.2
20260831023358 87 196 4.0 7.0 0.00 0.00 0.00 62 1016.0
20260831022334 87 180 3.0 7.0 0.00 0.00 0.00 61 1015.8
20260831021353 87 177 4.0 8.0 0.00 0.00 0.00 60 1015.6
20260831020414 88 148 4.0 9.0 0.00 0.00 0.00 60 1015.4
20260831015418 88 161 4.0 11.0 0.00 0.00 0.00 59 1015.3
20260831012338 89 178 4.0 11.0 0.00 0.00 0.00 55 1015.2
20260831011353 90 144 2.0 6.0 0.00 0.00 0.00 53 1015.0
20260831010419 91 140 0.0 1.0 0.00 0.00 0.00 53 1014.9
20260831005348 91 140 0.0 3.0 0.00 0.00 0.00 50 1014.7
20260831004421 92 140 2.0 4.0 0.00 0.00 0.00 49 1014.6
20260831002341 93 155 0.0 3.0 0.00 0.00 0.00 47 1014.5
20260831001416 94 143 1.0 6.0 0.00 0.00 0.00 47 1014.7
20260831000355 94 149 1.0 6.0 0.00 0.00 0.00 46 1014.7
20260830235412 94 119 3.0 9.0 0.00 0.00 0.00 46 1014.6
20260830234334 95 126 5.0 9.0 0.00 0.00 0.00 44 1014.7
20260830233409 96 150 2.0 7.0 0.00 0.00 0.00 43 1014.6
20260830232324 96 106 2.0 6.0 0.00 0.00 0.00 44 1014.6
20260830231355 95 151 1.0 11.0 0.00 0.00 0.00 45 1014.6
20260830230419 95 205 2.0 8.0 0.00 0.00 0.00 44 1014.7
20260830225342 96 184 5.0 9.0 0.00 0.00 0.00 44 1014.8
20260830224403 96 159 3.0 7.0 0.00 0.00 0.00 45 1014.8
20260830223325 95 147 3.0 9.0 0.00 0.00 0.00 45 1014.9
20260830222352 95 200 6.0 11.0 0.00 0.00 0.00 44 1014.9
20260830221422 95 167 4.0 10.0 0.00 0.00 0.00 45 1015.0
20260830220346 95 200 3.0 10.0 0.00 0.00 0.00 45 1015.1
20260830215405 94 117 5.0 10.0 0.00 0.00 0.00 45 1015.1
20260830214334 95 83 3.0 7.0 0.00 0.00 0.00 44 1015.1
20260830213338 95 129 6.0 13.0 0.00 0.00 0.00 46 1015.3
20260830212355 95 106 4.0 11.0 0.00 0.00 0.00 46 1015.3
20260830211323 95 229 5.0 11.0 0.00 0.00 0.00 46 1015.5
20260830210325 94 148 3.0 9.0 0.00 0.00 0.00 45 1015.8
20260830205326 95 198 5.0 11.0 0.00 0.00 0.00 46 1015.8
20260830204338 95 136 4.0 9.0 0.00 0.00 0.00 47 1016.0
20260830203338 94 198 5.0 10.0 0.00 0.00 0.00 49 1016.3
20260830202340 93 67 3.0 8.0 0.00 0.00 0.00 50 1016.4
20260830201355 92 142 3.0 11.0 0.00 0.00 0.00 51 1016.6
20260830200406 92 150 4.0 10.0 0.00 0.00 0.00 51 1016.9
20260830195336 92 148 4.0 10.0 0.00 0.00 0.00 52 1017.0
20260830194354 93 158 4.0 9.0 0.00 0.00 0.00 52 1017.1
20260830193358 92 170 4.0 12.0 0.00 0.00 0.00 53 1017.3
20260830192412 92 196 3.0 10.0 0.00 0.00 0.00 54 1017.3
20260830191417 92 146 3.0 10.0 0.00 0.00 0.00 54 1017.5
20260830190421 92 188 3.0 9.0 0.00 0.00 0.00 55 1017.6
20260830184352 91 162 6.0 10.0 0.00 0.00 0.00 55 1018.0
20260830183421 90 120 4.0 9.0 0.00 0.00 0.00 57 1018.1
20260830182351 91 209 5.0 11.0 0.00 0.00 0.00 56 1018.4
20260830181416 91 157 3.0 8.0 0.00 0.00 0.00 55 1018.4
20260830180323 89 151 5.0 10.0 0.00 0.00 0.00 59 1018.7
20260830175352 90 221 5.0 8.0 0.00 0.00 0.00 57 1018.7
20260830174421 89 148 3.0 12.0 0.00 0.00 0.00 58 1019.0
20260830173343 89 155 5.0 11.0 0.00 0.00 0.00 59 1019.1
20260830172413 88 216 3.0 14.0 0.00 0.00 0.00 60 1019.3
20260830171327 88 96 2.0 8.0 0.00 0.00 0.00 63 1019.2
20260830170402 88 189 4.0 7.0 0.00 0.00 0.00 63 1019.4
20260830165422 88 212 3.0 9.0 0.00 0.00 0.00 62 1019.5
20260830160338 86 212 4.0 10.0 0.00 0.00 0.00 67 1019.5
20260830155407 86 159 3.0 11.0 0.00 0.00 0.00 68 1019.5
20260830154328 85 172 4.0 10.0 0.00 0.00 0.00 70 1019.5
20260830153404 84 185 4.0 10.0 0.00 0.00 0.00 71 1019.4
20260830152337 85 172 3.0 7.0 0.00 0.00 0.00 72 1019.4
20260830151356 84 146 3.0 7.0 0.00 0.00 0.00 74 1019.3
20260830150324 83 202 4.0 9.0 0.00 0.00 0.00 75 1019.4
20260830145334 82 138 3.0 11.0 0.00 0.00 0.00 77 1019.3
20260830144403 82 224 3.0 11.0 0.00 0.00 0.00 78 1019.4
20260830143414 81 246 5.0 9.0 0.00 0.00 0.00 80 1019.4
20260830133348 74 164 0.0 0.0 0.00 0.00 0.00 93 1019.1
20260830132413 73 164 0.0 0.0 0.00 0.00 0.00 93 1019.1
20260830131342 72 164 0.0 0.0 0.00 0.00 0.00 93 1019.0
20260830130407 72 164 0.0 0.0 0.00 0.00 0.00 93 1019.0
20260830124344 71 164 0.0 0.0 0.00 0.00 0.00 93 1018.8
20260830123422 71 164 0.0 0.0 0.00 0.00 0.00 92 1018.7
20260830121343 71 164 0.0 0.0 0.00 0.00 0.00 91 1018.4
20260830120416 71 164 0.0 0.0 0.00 0.00 0.00 91 1018.5
20260830115337 71 164 0.0 0.0 0.00 0.00 0.00 91 1018.4
20260830114344 72 164 0.0 0.0 0.00 0.00 0.00 91 1018.3
20260830113415 72 164 0.0 0.0 0.00 0.00 0.00 91 1018.2
20260830111344 72 164 0.0 0.0 0.00 0.00 0.00 91 1018.4
20260830110349 72 164 0.0 0.0 0.00 0.00 0.00 91 1018.2
20260830105418 72 164 0.0 0.0 0.00 0.00 0.00 90 1018.3
20260830104324 72 164 0.0 0.0 0.00 0.00 0.00 90 1018.3
20260830103340 73 164 0.0 0.0 0.00 0.00 0.00 90 1018.2
20260830102401 73 164 0.0 0.0 0.00 0.00 0.00 91 1018.3
20260830101416 73 164 0.0 0.0 0.00 0.00 0.00 90 1018.2
20260830095348 73 164 0.0 0.0 0.00 0.00 0.00 89 1018.2
20260830094419 73 164 0.0 0.0 0.00 0.00 0.00 89 1018.3
20260830093330 73 164 0.0 0.0 0.00 0.00 0.00 89 1018.2
20260830092357 73 164 0.0 0.0 0.00 0.00 0.00 88 1018.2
20260830091330 73 164 0.0 0.0 0.00 0.00 0.00 87 1018.3
20260830090410 73 164 0.0 0.0 0.00 0.00 0.00 86 1018.2
20260830085324 74 164 0.0 0.0 0.00 0.00 0.00 86 1018.3
20260830083339 74 163 0.0 0.0 0.00 0.00 0.00 85 1018.3
20260830082419 75 163 0.0 0.0 0.00 0.00 0.00 85 1018.4
20260830081332 75 163 0.0 0.0 0.00 0.00 0.00 84 1018.3
20260830080401 76 163 0.0 0.0 0.00 0.00 0.00 83 1018.4
20260830075324 76 163 0.0 0.0 0.00 0.00 0.00 82 1018.6
20260830073337 77 163 0.0 0.0 0.00 0.00 0.00 80 1018.5